This is the latest recevied weather packets stored in our database for station/object OE3APM-13. If no packets are shown the sender has not sent any weather packets the latest 1 day(s).
| Time | Temp. | Humidity | Pressure | Rain* | Wind** | Luminosity | Snow |
|---|---|---|---|---|---|---|---|
| 1778089742 | 21.67° C | 44% | 1002.8 hPa | 0 mm | - | 11 W/m² | - |
| 1778088535 | 22.22° C | 41% | 1002.7 hPa | 0 mm | - | 23 W/m² | - |
| 1778087029 | 23.33° C | 38% | 1002.7 hPa | 0 mm | - | 109 W/m² | - |
| 1778086726 | 23.33° C | 39% | 1002.8 hPa | 0 mm | - | 141 W/m² | - |
| 1778086427 | 23.33° C | 39% | 1002.9 hPa | 0 mm | - | 156 W/m² | - |
| 1778085825 | 23.89° C | 40% | 1002.9 hPa | 0 mm | - | 186 W/m² | - |
| 1778085220 | 23.33° C | 42% | 1002.9 hPa | 0 mm | - | 227 W/m² | - |
| 1778084016 | 22.78° C | 43% | 1003.2 hPa | 0 mm | - | 199 W/m² | - |
| 1778083711 | 22.78° C | 43% | 1003.2 hPa | 0 mm | - | 271 W/m² | - |
| 1778083103 | 23.33° C | 44% | 1003.3 hPa | 0 mm | - | 128 W/m² | - |
| 1778082498 | 22.78° C | 43% | 1003.4 hPa | 0 mm | - | 271 W/m² | - |
| 1778081896 | 22.78° C | 44% | 1003.7 hPa | 0 mm | - | 156 W/m² | - |
| 1778080390 | 22.22° C | 44% | 1003.8 hPa | 0 mm | - | 211 W/m² | - |
| 1778077982 | 22.22° C | 46% | 1004.4 hPa | 0 mm | - | 200 W/m² | - |
| 1778077068 | 22.78° C | 45% | 1004.4 hPa | 0 mm | - | 464 W/m² | - |
| 1778076764 | 22.78° C | 46% | 1004.4 hPa | 0 mm | - | 185 W/m² | - |
| 1778076453 | 22.78° C | 46% | 1004.5 hPa | 0 mm | - | 462 W/m² | - |
| 1778075542 | 22.78° C | 46% | 1004.7 hPa | 0 mm | - | 218 W/m² | - |
| 1778074618 | 23.33° C | 45% | 1004.8 hPa | 0 mm | - | 805 W/m² | - |
| 1778072510 | 22.22° C | 46% | 1005.2 hPa | 0 mm | - | 232 W/m² | - |
| 1778071896 | 22.22° C | 46% | 1005.3 hPa | 0 mm | - | 267 W/m² | - |
| 1778071294 | 22.78° C | 43% | 1005.6 hPa | 0 mm | - | 276 W/m² | - |
| 1778070994 | 22.78° C | 44% | 1005.6 hPa | 0 mm | - | 346 W/m² | - |
| 1778070705 | 22.78° C | 44% | 1005.7 hPa | 0 mm | - | 352 W/m² | - |
| 1778070392 | 23.33° C | 43% | 1005.7 hPa | 0 mm | - | 260 W/m² | - |
* Rain latest hour (hover to see other rain measurements)
** Current wind speed in m/s (hover to see current wind gust speed)